GW1213 Weather Reports


Display with metric or nautical units.
time (UTC)temp
F
wind
direction
speed
MPH
gust
MPH
rain 1hr
in
rain 24hr
in
rain mn
in
humidity
%
barometer
mb
20260508160536 68 126 2.0 9.0 0.00 0.01 0.00 36 1014.9
20260508160046 67 70 0.0 4.0 0.00 0.01 0.00 39 1015.0
20260508155534 67 32 1.0 7.0 0.00 0.01 0.00 35 1015.0
20260508155035 67 216 1.0 8.0 0.00 0.01 0.00 37 1015.2
20260508154554 67 202 3.0 8.0 0.00 0.01 0.00 40 1015.1
20260508154038 66 157 1.0 5.0 0.00 0.01 0.00 39 1015.0
20260508153538 66 158 1.0 5.0 0.00 0.01 0.00 40 1015.2
20260508153056 66 208 2.0 9.0 0.00 0.01 0.00 40 1015.2
20260508152538 66 278 2.0 9.0 0.00 0.01 0.00 39 1015.2
20260508152038 66 171 1.0 7.0 0.00 0.01 0.00 34 1015.3
20260508151549 67 260 2.0 7.0 0.00 0.01 0.00 37 1015.3
20260508151038 66 181 0.0 3.0 0.00 0.01 0.00 35 1015.4
20260508150537 66 257 0.0 2.0 0.00 0.01 0.00 37 1015.4
20260508150050 66 0 0.0 2.0 0.00 0.01 0.00 38 1015.4
20260508145539 65 0 0.0 2.0 0.00 0.01 0.00 39 1015.5
20260508145038 65 0 0.0 5.0 0.00 0.01 0.00 41 1015.6
20260508144553 64 0 0.0 8.0 0.00 0.01 0.00 41 1015.6
20260508144038 64 0 3.0 8.0 0.00 0.01 0.00 36 1015.7
20260508143539 64 0 1.0 4.0 0.00 0.01 0.00 38 1015.8
20260508143059 64 262 0.0 3.0 0.00 0.01 0.00 39 1015.7
20260508142538 63 0 0.0 2.0 0.00 0.01 0.00 42 1015.7
20260508142038 63 0 0.0 2.0 0.00 0.01 0.00 40 1015.7
20260508141604 63 26 0.0 2.0 0.00 0.01 0.00 43 1015.7
20260508141037 63 0 0.0 2.0 0.00 0.01 0.00 43 1015.8
20260508140538 62 0 0.0 3.0 0.00 0.01 0.00 50 1015.8
20260508140056 61 61 1.0 3.0 0.00 0.01 0.00 50 1015.8
20260508135538 61 62 1.0 5.0 0.00 0.01 0.00 51 1015.9
20260508135038 60 70 1.0 5.0 0.00 0.01 0.00 54 1015.9
20260508134551 60 81 2.0 5.0 0.00 0.01 0.00 53 1015.9
20260508134037 60 76 1.0 4.0 0.00 0.01 0.00 56 1016.0
20260508133539 59 64 1.0 3.0 0.00 0.01 0.00 60 1016.0
20260508133052 59 0 0.0 0.0 0.00 0.01 0.00 61 1016.1
20260508132538 58 0 0.0 0.0 0.00 0.01 0.00 60 1016.2
20260508132038 58 0 0.0 0.0 0.00 0.01 0.00 60 1016.1
20260508131603 57 0 0.0 0.0 0.00 0.01 0.00 63 1016.2
20260508131041 57 0 0.0 0.0 0.00 0.01 0.00 65 1016.1
20260508130542 56 0 0.0 0.0 0.00 0.01 0.00 72 1016.1
20260508130054 56 0 0.0 0.0 0.00 0.01 0.00 71 1016.1
20260508125538 55 0 0.0 0.0 0.00 0.01 0.00 73 1016.1
20260508125038 55 0 0.0 0.0 0.00 0.01 0.00 74 1016.2
20260508124552 54 0 0.0 0.0 0.00 0.01 0.00 79 1016.2
20260508124038 54 0 0.0 0.0 0.00 0.01 0.00 83 1016.2
20260508123538 53 0 0.0 0.0 0.00 0.01 0.00 86 1016.1
20260508123105 52 0 0.0 0.0 0.00 0.01 0.00 86 1016.1
20260508122538 51 0 0.0 3.0 0.00 0.01 0.00 87 1016.1
20260508122040 50 0 0.0 3.0 0.00 0.01 0.00 86 1016.0
20260508121600 50 73 2.0 3.0 0.00 0.01 0.00 87 1015.7
20260508121038 50 69 0.0 0.0 0.00 0.01 0.00 87 1015.8
20260508120538 50 0 0.0 0.0 0.00 0.01 0.00 87 1015.8
20260508120106 50 0 0.0 0.0 0.00 0.01 0.00 88 1015.9
20260508115538 50 0 0.0 0.0 0.00 0.01 0.00 89 1015.8
20260508115036 50 0 0.0 0.0 0.00 0.01 0.00 89 1015.7
20260508114559 49 0 0.0 0.0 0.00 0.01 0.00 92 1015.7
20260508114038 48 0 0.0 0.0 0.00 0.01 0.00 95 1015.7
20260508113538 47 0 0.0 0.0 0.00 0.01 0.00 95 1015.7
20260508113103 47 0 0.0 0.0 0.00 0.01 0.00 95 1015.7
20260508112537 46 0 0.0 0.0 0.00 0.01 0.00 96 1015.6
20260508112037 46 0 0.0 0.0 0.00 0.01 0.00 97 1015.6
20260508111550 45 0 0.0 0.0 0.00 0.01 0.00 97 1015.4
20260508111039 44 0 0.0 0.0 0.00 0.01 0.00 97 1015.4
20260508110538 44 0 0.0 0.0 0.00 0.01 0.00 97 1015.2
20260508110051 43 0 0.0 0.0 0.00 0.01 0.00 97 1015.1
20260508105538 43 0 0.0 0.0 0.00 0.01 0.00 97 1015.0
20260508105039 42 0 0.0 0.0 0.00 0.01 0.00 96 1015.0
20260508104548 41 0 0.0 0.0 0.00 0.01 0.00 95 1014.9
20260508104038 41 0 0.0 0.0 0.00 0.01 0.00 94 1014.7
20260508103538 42 0 0.0 0.0 0.00 0.01 0.00 94 1014.6
20260508103059 42 0 0.0 0.0 0.00 0.01 0.00 94 1014.5
20260508102538 42 0 0.0 0.0 0.00 0.01 0.00 94 1014.3
20260508102038 42 0 0.0 0.0 0.00 0.01 0.00 94 1014.2
20260508101554 42 0 0.0 0.0 0.00 0.01 0.00 94 1014.2
20260508101038 42 0 0.0 0.0 0.00 0.01 0.00 94 1014.1
20260508100537 42 0 0.0 0.0 0.00 0.01 0.00 94 1014.0
20260508100048 42 0 0.0 0.0 0.00 0.01 0.00 94 1013.9
20260508095541 42 0 0.0 0.0 0.00 0.01 0.00 94 1013.8
20260508095038 43 0 0.0 0.0 0.00 0.01 0.00 94 1013.8
20260508094547 43 0 0.0 0.0 0.00 0.01 0.00 94 1013.8
20260508094038 43 0 0.0 0.0 0.00 0.01 0.00 94 1013.8
20260508093538 43 0 0.0 0.0 0.00 0.01 0.00 94 1013.7
20260508093046 43 0 0.0 0.0 0.00 0.01 0.00 94 1013.8
20260508092535 43 0 0.0 0.0 0.00 0.01 0.00 95 1013.8
20260508092034 44 0 0.0 0.0 0.00 0.01 0.00 94 1013.8
20260508091547 44 0 0.0 0.0 0.00 0.01 0.00 94 1013.8
20260508091034 44 0 0.0 0.0 0.00 0.01 0.00 94 1013.8
20260508090534 44 0 0.0 0.0 0.00 0.01 0.00 94 1013.8
20260508090059 44 0 0.0 0.0 0.00 0.01 0.00 94 1013.7
20260508085533 44 0 0.0 0.0 0.00 0.01 0.00 94 1013.6
20260508085034 44 0 0.0 0.0 0.00 0.01 0.00 94 1013.6
20260508084549 44 0 0.0 0.0 0.00 0.01 0.00 94 1013.5
20260508084034 45 0 0.0 0.0 0.00 0.01 0.00 94 1013.6
20260508083535 45 0 0.0 0.0 0.00 0.01 0.00 94 1013.5
20260508083049 45 0 0.0 0.0 0.00 0.01 0.00 94 1013.5
20260508082536 45 0 0.0 0.0 0.00 0.01 0.00 94 1013.4
20260508082035 45 0 0.0 0.0 0.00 0.01 0.00 94 1013.4
20260508081548 45 0 0.0 0.0 0.00 0.01 0.00 94 1013.4
20260508081034 45 0 0.0 0.0 0.00 0.01 0.00 94 1013.3
20260508080535 45 0 0.0 0.0 0.00 0.01 0.00 94 1013.3
20260508080050 46 0 0.0 0.0 0.00 0.01 0.00 94 1013.3
20260508075534 46 0 0.0 0.0 0.00 0.01 0.00 94 1013.3
20260508075033 46 0 0.0 0.0 0.00 0.01 0.00 94 1013.2
20260508074551 46 0 0.0 0.0 0.00 0.01 0.00 94 1013.2
20260508074036 46 0 0.0 0.0 0.00 0.01 0.00 94 1013.2
20260508073534 46 0 0.0 0.0 0.00 0.01 0.00 94 1013.2
20260508073047 46 0 0.0 0.0 0.00 0.01 0.00 94 1013.2
20260508072535 46 0 0.0 0.0 0.00 0.01 0.00 94 1013.1
20260508072034 46 0 0.0 0.0 0.00 0.01 0.00 94 1013.0
20260508071551 46 0 0.0 0.0 0.00 0.01 0.00 94 1013.0
20260508071034 46 0 0.0 0.0 0.00 0.01 0.00 94 1012.9
20260508070534 46 0 0.0 0.0 0.00 0.01 0.00 94 1012.9
20260508070054 47 0 0.0 0.0 0.00 0.01 0.00 94 1012.8
20260508065533 47 0 0.0 0.0 0.00 0.02 0.00 94 1012.8
20260508065035 47 0 0.0 0.0 0.00 0.02 0.00 94 1012.7
20260508064551 47 0 0.0 0.0 0.00 0.02 0.00 94 1012.5
20260508064034 47 0 0.0 0.0 0.00 0.02 0.00 94 1012.4
20260508063534 47 0 0.0 0.0 0.00 0.02 0.00 94 1012.4
20260508063102 47 0 0.0 0.0 0.00 0.02 0.00 94 1012.3
20260508062536 47 0 0.0 0.0 0.00 0.02 0.00 94 1012.2
20260508062034 46 0 0.0 0.0 0.00 0.02 0.00 94 1012.2
20260508061548 46 0 0.0 0.0 0.00 0.02 0.00 94 1012.1
20260508061037 46 0 0.0 0.0 0.00 0.02 0.00 94 1012.0
20260508060533 46 0 0.0 0.0 0.00 0.02 0.00 93 1012.0
20260508060049 46 0 0.0 0.0 0.00 0.02 0.00 93 1012.0
20260508055534 46 0 0.0 0.0 0.00 0.03 0.00 93 1011.9
20260508055034 46 0 0.0 0.0 0.00 0.03 0.00 93 1012.0
20260508054542 46 0 0.0 0.0 0.00 0.03 0.00 93 1012.0
20260508054033 47 0 0.0 0.0 0.00 0.03 0.00 92 1011.9
20260508053534 47 0 0.0 0.0 0.00 0.03 0.00 92 1011.9
20260508053055 47 0 0.0 0.0 0.00 0.03 0.00 92 1011.9
20260508052534 47 0 0.0 0.0 0.00 0.03 0.00 92 1011.9
20260508052034 47 0 0.0 0.0 0.00 0.03 0.00 92 1011.9
20260508051552 47 0 0.0 0.0 0.00 0.03 0.00 92 1011.8
20260508051040 47 0 0.0 0.0 0.00 0.03 0.00 92 1011.9
20260508050537 48 0 0.0 0.0 0.00 0.03 0.00 92 1011.9
20260508050047 48 0 0.0 0.0 0.00 0.03 0.00 92 1011.7
20260508045534 48 0 0.0 0.0 0.00 0.04 0.00 92 1011.8
20260508045034 48 0 0.0 0.0 0.00 0.04 0.00 92 1011.7
20260508044546 48 0 0.0 0.0 0.00 0.04 0.00 92 1011.7
20260508044034 48 0 0.0 0.0 0.00 0.04 0.00 91 1011.7
20260508043534 48 0 0.0 0.0 0.00 0.04 0.00 92 1011.6
20260508043057 48 0 0.0 0.0 0.00 0.04 0.00 91 1011.5
20260508042535 49 0 0.0 0.0 0.00 0.04 0.00 91 1011.5
20260508042036 49 0 0.0 0.0 0.00 0.04 0.00 91 1011.6
20260508041558 49 0 0.0 0.0 0.00 0.04 0.00 91 1011.5
20260508041037 49 0 0.0 0.0 0.00 0.04 0.00 91 1011.6
20260508040536 49 0 0.0 0.0 0.00 0.04 0.00 90 1011.5
20260508040051 49 0 0.0 0.0 0.00 0.04 0.00 90 1011.4
20260508035535 49 0 0.0 0.0 0.00 0.04 0.04 90 1011.3
20260508035034 50 0 0.0 0.0 0.00 0.04 0.04 89 1011.4
20260508034547 50 0 0.0 0.0 0.00 0.04 0.04 89 1011.3
20260508034037 50 0 0.0 0.0 0.00 0.04 0.04 89 1011.3
20260508033536 50 0 0.0 0.0 0.00 0.04 0.04 88 1011.3
20260508033048 50 0 0.0 0.0 0.00 0.04 0.04 88 1011.3
20260508032537 51 0 0.0 0.0 0.00 0.04 0.04 87 1011.3
20260508032039 51 0 0.0 0.0 0.00 0.04 0.04 87 1011.3
20260508031546 51 0 0.0 0.0 0.00 0.04 0.04 87 1011.3
20260508031035 51 0 0.0 0.0 0.00 0.04 0.04 86 1011.3
20260508030538 51 0 0.0 0.0 0.00 0.04 0.04 86 1011.2
20260508030052 52 0 0.0 0.0 0.00 0.04 0.04 85 1011.2
20260508025538 52 0 0.0 0.0 0.00 0.04 0.04 84 1011.2
20260508025039 52 0 0.0 0.0 0.00 0.04 0.04 85 1011.2
20260508024550 52 0 0.0 0.0 0.00 0.04 0.04 83 1011.1
20260508024038 52 0 0.0 0.0 0.00 0.04 0.04 83 1011.1
20260508023538 52 0 0.0 0.0 0.00 0.04 0.04 83 1011.1
20260508023048 53 0 0.0 0.0 0.00 0.04 0.04 82 1011.1
20260508022539 53 0 0.0 0.0 0.00 0.04 0.04 82 1011.2
20260508022038 53 0 0.0 0.0 0.00 0.04 0.04 82 1011.1
20260508021554 53 0 0.0 0.0 0.00 0.04 0.04 81 1011.1
20260508021037 53 0 0.0 0.0 0.00 0.04 0.04 81 1011.1
20260508020537 53 0 0.0 0.0 0.00 0.04 0.04 81 1011.1
20260508020049 53 0 0.0 0.0 0.00 0.04 0.04 80 1011.0
20260508015537 53 0 0.0 1.0 0.00 0.04 0.04 80 1011.0
20260508015038 53 0 0.0 3.0 0.00 0.04 0.04 79 1010.9
20260508014551 53 0 0.0 3.0 0.00 0.04 0.04 79 1010.8
20260508014038 53 0 0.0 0.0 0.00 0.04 0.04 79 1010.8
20260508013538 53 0 0.0 0.0 0.00 0.04 0.04 79 1010.8
20260508013057 53 0 0.0 0.0 0.00 0.04 0.04 79 1010.8
20260508012538 53 0 0.0 0.0 0.00 0.04 0.04 78 1010.7
20260508012039 53 0 0.0 0.0 0.00 0.04 0.04 78 1010.7
20260508011554 53 0 0.0 0.0 0.00 0.04 0.04 78 1010.6
20260508011035 53 0 0.0 0.0 0.00 0.04 0.04 78 1010.7
20260508010538 54 0 0.0 0.0 0.00 0.04 0.04 77 1010.7
20260508010048 54 0 0.0 0.0 0.00 0.04 0.04 78 1010.6
20260508005537 54 0 0.0 0.0 0.00 0.04 0.04 77 1010.5
20260508005041 54 0 0.0 0.0 0.00 0.04 0.04 77 1010.4
20260508004547 54 0 0.0 0.0 0.00 0.04 0.04 76 1010.4
20260508004040 54 0 0.0 0.0 0.00 0.04 0.04 76 1010.4
20260508003537 54 0 0.0 0.0 0.00 0.04 0.04 76 1010.4
20260508003051 55 0 0.0 0.0 0.00 0.04 0.04 75 1010.3
20260508002539 55 0 0.0 1.0 0.00 0.04 0.04 75 1010.3
20260508002037 55 0 0.0 3.0 0.00 0.04 0.04 75 1010.3
20260508001609 55 0 0.0 3.0 0.00 0.04 0.04 75 1010.3
20260508001041 56 0 0.0 3.0 0.00 0.04 0.04 74 1010.2
20260508000541 56 0 0.0 3.0 0.00 0.04 0.04 74 1010.2
20260508000053 56 0 0.0 4.0 0.00 0.04 0.04 74 1010.1
20260507235539 56 0 0.0 4.0 0.00 0.04 0.04 73 1010.1
20260507235038 56 225 1.0 5.0 0.00 0.04 0.04 72 1010.0
20260507234551 56 209 1.0 5.0 0.00 0.04 0.04 72 1009.9
20260507234058 57 161 1.0 5.0 0.00 0.04 0.04 72 1009.8
20260507233538 57 0 1.0 5.0 0.00 0.04 0.04 73 1009.7
20260507233047 57 221 1.0 4.0 0.00 0.04 0.04 72 1009.7
20260507232538 57 139 0.0 4.0 0.00 0.04 0.04 71 1009.6
20260507232038 57 148 1.0 4.0 0.00 0.04 0.04 72 1009.5
20260507231548 57 136 0.0 8.0 0.00 0.04 0.04 71 1009.3
20260507231037 57 0 1.0 8.0 0.00 0.04 0.04 72 1009.3
20260507230538 57 194 1.0 8.0 0.00 0.04 0.04 73 1009.3
20260507230049 57 146 1.0 5.0 0.00 0.04 0.04 73 1009.3
20260507225540 57 0 1.0 9.0 0.00 0.04 0.04 73 1009.2
20260507225038 57 192 2.0 9.0 0.00 0.04 0.04 74 1009.3
20260507224557 57 103 0.0 10.0 0.00 0.04 0.04 73 1009.3
20260507224040 57 256 2.0 10.0 0.00 0.04 0.04 73 1009.3
20260507223539 58 180 2.0 9.0 0.00 0.04 0.04 73 1009.2
20260507223053 58 139 3.0 9.0 0.00 0.04 0.04 74 1009.2
20260507222537 58 69 2.0 7.0 0.00 0.04 0.04 74 1009.2
20260507222042 58 58 1.0 8.0 0.00 0.04 0.04 72 1009.3
20260507221553 58 143 1.0 8.0 0.00 0.04 0.04 71 1009.3
20260507221036 58 211 1.0 8.0 0.00 0.04 0.04 73 1009.3
20260507220537 57 205 1.0 8.0 0.00 0.04 0.04 72 1009.1
20260507220049 57 231 2.0 8.0 0.00 0.04 0.04 72 1008.9
20260507215538 57 167 1.0 7.0 0.00 0.04 0.04 73 1008.9
20260507215037 57 52 2.0 10.0 0.00 0.04 0.04 72 1009.0
20260507214553 57 82 3.0 10.0 0.00 0.04 0.04 72 1009.0
20260507214037 57 0 3.0 8.0 0.00 0.04 0.04 73 1009.0
20260507213538 57 61 3.0 8.0 0.00 0.04 0.04 72 1009.0
20260507213046 57 101 1.0 7.0 0.00 0.04 0.04 72 1009.1
20260507212537 57 273 1.0 7.0 0.00 0.04 0.04 72 1009.2
20260507212037 57 65 2.0 6.0 0.00 0.04 0.04 72 1009.2
20260507211555 57 59 2.0 8.0 0.00 0.04 0.04 70 1009.2
20260507211037 57 0 2.0 8.0 0.00 0.04 0.04 69 1009.3
20260507210541 58 73 4.0 8.0 0.00 0.04 0.04 70 1009.1
20260507210054 58 243 3.0 9.0 0.00 0.04 0.04 70 1009.3
20260507205537 57 142 2.0 9.0 0.00 0.04 0.04 71 1009.4
20260507205103 57 169 3.0 9.0 0.00 0.04 0.04 72 1009.3
20260507204556 57 147 2.0 10.0 0.00 0.04 0.04 73 1009.3
20260507204038 57 55 4.0 10.0 0.00 0.04 0.04 70 1009.3
20260507203537 58 89 3.0 10.0 0.00 0.04 0.04 68 1009.3
20260507203055 58 120 3.0 10.0 0.00 0.04 0.04 67 1009.4
20260507202539 58 252 2.0 7.0 0.00 0.04 0.04 66 1009.4
20260507202042 58 240 1.0 6.0 0.00 0.04 0.04 68 1009.4
20260507201553 58 298 2.0 7.0 0.00 0.04 0.04 68 1009.5
20260507201039 57 161 2.0 7.0 0.00 0.04 0.04 69 1009.4
20260507200538 56 71 3.0 6.0 0.00 0.04 0.04 69 1009.4
20260507200045 56 52 1.0 10.0 0.00 0.04 0.04 70 1009.4
20260507195538 56 57 5.0 10.0 0.00 0.04 0.04 67 1009.4
20260507195038 56 85 5.0 10.0 0.00 0.04 0.04 68 1009.5
20260507194549 56 67 3.0 8.0 0.00 0.04 0.04 66 1009.6
20260507194037 56 0 0.0 8.0 0.00 0.04 0.04 67 1009.7
20260507193537 56 0 3.0 8.0 0.00 0.04 0.04 65 1010.0
20260507193054 56 84 0.0 8.0 0.00 0.04 0.04 67 1009.8
20260507192537 56 105 1.0 9.0 0.01 0.04 0.04 67 1009.8
20260507192038 56 69 4.0 9.0 0.01 0.04 0.04 68 1009.6
20260507191554 56 64 1.0 11.0 0.01 0.04 0.04 67 1009.6
20260507191037 55 89 4.0 11.0 0.01 0.04 0.04 68 1009.7
20260507190539 56 59 4.0 9.0 0.01 0.04 0.04 69 1009.5
20260507190053 56 159 3.0 8.0 0.01 0.04 0.04 67 1010.0
20260507185538 56 102 3.0 8.0 0.01 0.04 0.04 69 1010.1
20260507185040 55 64 2.0 5.0 0.01 0.04 0.04 70 1010.1
20260507184550 55 76 2.0 6.0 0.01 0.04 0.04 68 1010.2
20260507184039 55 65 0.0 6.0 0.01 0.04 0.04 68 1010.1
20260507183540 55 65 4.0 6.0 0.01 0.04 0.04 66 1010.3
20260507183046 56 73 1.0 3.0 0.01 0.04 0.04 62 1010.6
20260507182538 56 77 0.0 2.0 0.00 0.03 0.03 60 1010.5
20260507182039 56 0 0.0 8.0 0.00 0.03 0.03 60 1010.3
20260507181552 56 0 1.0 8.0 0.00 0.03 0.03 58 1010.7
20260507181038 56 0 0.0 5.0 0.00 0.03 0.03 57 1010.4
20260507180538 56 0 1.0 5.0 0.00 0.03 0.03 57 1010.4
20260507180053 56 14 0.0 5.0 0.00 0.03 0.03 56 1010.3
20260507175538 56 0 1.0 6.0 0.00 0.03 0.03 54 1010.7
20260507175038 57 69 2.0 6.0 0.00 0.03 0.03 52 1010.8
20260507174554 57 0 0.0 4.0 0.00 0.03 0.03 56 1010.8
20260507174037 56 34 1.0 4.0 0.00 0.03 0.03 53 1010.6
20260507173541 56 31 2.0 4.0 0.00 0.03 0.03 56 1010.6
20260507173053 56 345 1.0 3.0 0.00 0.03 0.03 56 1010.6
20260507172539 56 35 0.0 3.0 0.00 0.03 0.03 60 1010.7
20260507172038 56 0 0.0 2.0 0.00 0.03 0.03 62 1010.9
20260507171603 57 0 0.0 3.0 0.00 0.03 0.03 64 1010.8
20260507171038 57 352 0.0 3.0 0.00 0.03 0.03 62 1011.2
20260507170539 57 0 0.0 2.0 0.00 0.03 0.03 64 1011.1
20260507170056 57 352 0.0 3.0 0.00 0.03 0.03 64 1011.0
20260507165538 57 15 0.0 3.0 0.00 0.03 0.03 61 1010.9
20260507165038 56 0 0.0 3.0 0.00 0.03 0.03 62 1011.1
20260507164551 56 0 0.0 0.0 0.00 0.03 0.03 64 1011.2
20260507164040 56 0 0.0 0.0 0.00 0.03 0.03 64 1011.4
20260507163538 56 0 0.0 0.0 0.00 0.03 0.03 64 1011.5
20260507163054 56 0 0.0 0.0 0.00 0.03 0.03 63 1011.7
20260507162538 56 0 0.0 0.0 0.00 0.03 0.03 63 1011.6
20260507162038 56 0 0.0 0.0 0.00 0.03 0.03 66 1011.6
20260507161549 57 0 0.0 0.0 0.00 0.03 0.03 65 1011.8
20260507161041 57 0 0.0 0.0 0.00 0.03 0.03 68 1011.4